Location: Aulnoy
(48.8410°N, 3.0967°E)
Time: 15:31:49
(UTC+00:00)

Envisat - Pass Details

Date: 07 March 2024
Orbit: 762 x 764 km, 98.3° (Epoch: 22 April)

Event Time Altitude Azimuth Distance (km) Brightness Sun altitude
Rises 04:53:10 0° 3° (N) 3,243 6.4 -14.6°
Reaches altitude 10° 04:56:04 10° 346° (NNW) 2,312 5.4 -14.1°
Maximum altitude 04:59:33 19° 302° (WNW) 1,763 4.4 -13.5°
Enters shadow 05:00:51 17° 283° (WNW) 1,847 4.4 -13.3°
